Showing default

BRO-13, 59107

Orbit data source: Space-Track

BRO-13, 59107 is a payload satellite owned by Unseen Labs (FR) in SSO that was launched on Mon, 04 Mar 2024 UTC via an FALCON 9 launch vehicle from the Air Force Western Test Range (AFWTR). Payload-class satellites include a variety of spacecraft equipped with specific instruments for various scientific and technological missions. These include communications satellites like Starlink; space stations such as the ISS; scientific satellites like the Hubble; Earth observation satellites from companies like Planet Labs, Umbra, and HawkEye 360; GPS; miniature CubeSats for education and research; and military/defense satellites.

Loading next visibility...
Identifier
59107, 2024-043K
Orbit
SSO
Country
Flag of FRFR
Related business
Manufacturer
GOMSpace
Mission
Operational Commercial Sigint
Bus & Motor
CUBESAT 8U, Unknown motor
Mass
15 kg wet, ~15 kg dry
Launch date (UTC)
2024-03-04 (2 years ago)
Launch vehicle
FALCON 9
Launch site
Air Force Western Test Range (AFWTR)
Object type
Payload
Rocket body
Debris
Shape & HBR
Box, 0.2 m
Radar Cross Section
0.100 m², Medium (>0.1 m² and < 1m²)

Expand to show TLE details & history
Last TLE update: 6 hours ago

TLE from 6 hours ago
0 BRO-13
1 59107U 24043K   26221.84566127  .00001072  00000-0  99041-4 0  9994
2 59107  97.8559 353.0563 0009326 169.6243 190.5172 14.96703073132644
Epoch: 2026-08-09T20:17Z
TLE epoch observation values (Epoch: 2026-08-09T20:17:45.133Z)
Latitude
-0.00007°
Longitude
90.28145°
Altitude
586.516 km
Speed
7.563 km/s
True Right ascension
23h 32m 13s
True Declination
0° 00' 00"
Sunlit
Object was in full shadow at epoch
Visualization orbit readout
Latitude
Unknown
Longitude
Unknown
Altitude
Unknown
Speed
Unknown
Apparent Right ascension
Unknown
Apparent Declination
Unknown
Sunlit
N/A
Visualization observer readout
Local Sidereal Time
16:12:15
Azimuth
Unknown
Elevation
Unknown
Doppler factor
Unknown
Orbital elements
Apogee altitude
580.592 km
Perigee altitude
567.625 km
Semi-major axis
6,952.245 km
Eccentricity
0.00093
Inclination
97.8559°
RAAN
353.0563°
Arg. of periapsis
169.6243°
True anomaly
190.49772°
Mean anomaly
190.5172°
Eccentric anomaly
190.50746°
Mean motion
3.74417 °/min
Orbital period
96.15 mins
BSTAR
0.000099041
Loading maneuver chart data...
Computing Atmospheric mass density...
Loading historical data...
Loading historical data...
Loading historical data...
Loading historical data...
Loading historical data...
Loading historical data...
Loading historical data...

Documentation

Showing up to 5 results
|